RH
57 59 59 63 65 56 57 62 81 93 96 96 97 96 95 96 96 96 93 95 94 98 99 99 99 99 99 99 99 98 93 88
53 51 56 60 62 59 60 59 63 66 73 90 90 90 95 94 95 92 92 94 95 97 98 98 98 100 98 98 98 98 98 95
52 55 55 57 58 60 61 56 58 62 68 77 75 80 85 95 95 92 88 91 92 96 98 99 99 100 97 98 98 94 99 98
51 49 57 57 55 53 52 59 59 59 61 64 68 71 74 74 77 78 80 88 91 91 92 96 98 99 96 98 93 98 95 92
47 52 57 57 59 54 52 53 54 58 63 65 67 72 71 77 80 82 74 76 77 80 89 94 96 98 98 99 97 98 98 96
49 51 53 54 53 50 50 48 49 52 54 60 68 68 78 82 83 80 80 80 77 75 81 89 93 95 94 95 97 97 98 99
48 52 50 54 56 52 53 47 47 49 50 53 58 65 68 76 73 76 81 86 84 82 81 91 93 93 93 95 95 96 98 98
54 53 55 50 50 48 47 44 45 48 51 50 56 63 69 72 74 82 82 88 91 93 91 92 95 94 94 95 95 96 97 98
47 47 45 44 44 48 48 46 48 48 48 52 57 68 77 79 81 81 88 92 93 87 83 87 86 88 93 95 97 97 96 96
38 39 39 39 42 44 45 44 40 45 52 54 55 61 66 65 63 80 88 88 81 81 80 80 80 82 88 94 95 95 96 96
38 38 38 38 39 42 42 40 40 42 48 51 53 54 58 61 66 67 74 79 82 80 80 78 77 81 86 89 89 88 89 92
37 35 34 38 39 36 38 35 32 32 38 41 46 48 52 57 65 66 73 79 81 80 79 78 78 80 84 90 86 86 89 91
34 31 34 37 34 32 30 33 32 36 40 44 46 48 48 51 57 61 68 74 81 83 84 82 80 79 86 91 91 90 91 95
31 35 37 34 32 33 34 37 37 38 38 42 44 47 48 49 52 55 59 62 65 69 70 74 68 74 85 89 90 90 87 83
30 29 31 35 38 41 39 42 45 44 44 47 51 53 54 57 61 64 66 62 67 66 72 73 70 71 77 84 89 92 92 88
22 31 40 40 42 44 43 45 49 52 53 57 60 63 64 68 71 74 73 73 72 74 78 82 84 85 82 89 92 92 94 93
33 35 37 40 40 43 45 52 54 56 59 58 60 66 66 70 68 65 67 78 80 79 88 89 90 84 87 98 99 92 94 99
35 37 38 40 46 50 56 56 57 60 60 62 64 65 66 67 64 66 78 81 82 87 91 92 92 91 95 98 95 99 98 97
35 36 39 48 56 58 58 59 63 68 69 68 68 69 71 74 78 77 80 85 88 92 89 91 94 90 93 94 95 96 97 95
Wind_Speed
11 10 8 9 9 11 10 8 7 5 3 3 3 3 2 2 2 2 3 4 5 3 4 5 4 3 4 3 5 5 6 7
10 11 9 8 8 10 8 9 6 5 4 3 3 2 2 3 4 4 4 3 3 3 4 4 3 4 6 5 3 6 6 5
12 10 9 8 7 8 8 8 7 5 4 2 2 1 2 2 3 5 6 6 5 4 4 4 5 3 6 4 6 9 3 4
13 12 9 7 8 8 8 7 7 6 5 3 3 3 3 4 4 3 5 6 6 7 7 5 5 3 6 5 7 7 10 7
12 11 8 8 6 7 8 7 7 5 6 5 5 2 3 2 2 3 5 5 5 6 6 6 4 3 5 4 4 5 6 9
14 12 9 8 7 7 7 8 8 6 7 6 4 3 1 2 3 5 5 5 7 8 6 6 3 2 3 4 4 4 2 3
13 8 10 7 6 7 7 8 5 6 6 6 5 4 5 4 4 4 4 3 4 6 7 5 6 6 6 5 5 5 5 4
12 11 8 7 8 7 7 7 5 4 6 7 7 6 5 5 5 3 5 3 2 4 4 4 3 3 4 5 5 6 6 4
11 10 8 8 8 7 7 6 5 5 5 4 4 3 2 3 2 2 2 1 2 2 2 1 2 3 3 3 1 1 4 9
12 9 9 8 7 6 7 6 6 6 4 4 6 4 5 5 6 3 1 2 3 3 3 4 4 4 1 1 1 3 2 2
11 9 8 6 7 7 8 7 4 1 2 2 2 5 5 5 4 4 4 5 4 5 6 6 6 6 5 4 4 3 2 0
10 8 7 8 7 7 6 5 2 2 2 3 4 6 6 6 5 6 6 5 7 7 7 7 7 7 7 6 7 7 6 5
9 9 8 8 7 5 4 1 3 4 4 4 5 6 6 6 7 7 7 7 7 8 7 7 8 8 8 7 7 6 6 6
8 8 7 7 5 5 5 4 2 3 4 6 7 7 7 7 7 8 8 7 8 8 8 9 10 10 8 8 9 7 7 7
7 7 7 7 6 5 4 5 5 6 6 6 6 7 7 7 7 8 8 9 7 9 8 9 11 11 9 6 6 7 7 7
8 8 7 6 6 5 4 4 5 4 5 6 6 6 6 6 7 6 7 6 6 6 6 7 7 6 6 7 5 5 6 9
11 8 7 6 5 3 4 5 5 5 4 4 5 6 6 6 8 10 9 7 7 9 6 5 5 3 8 15 8 7 5 7
10 8 7 6 6 6 6 5 4 5 6 7 8 9 10 11 12 11 7 9 9 10 8 7 7 6 3 5 7 4 6 8
8 6 6 7 6 6 4 5 6 5 6 8 9 10 11 11 10 11 11 10 10 9 10 10 7 6 7 8 8 6 6 9
Wind_Direction
114 100 88 92 89 81 72 72 70 93 82 64 52 34 9 26 3 354 346 334 319 299 285 285 288 268 268 266 258 252 243 246
114 106 101 94 81 87 83 81 57 75 78 74 47 7 345 356 5 7 360 341 305 286 284 289 252 239 262 252 255 252 258 230
127 112 96 90 101 97 89 92 82 65 61 46 61 4 346 338 357 354 355 336 336 334 320 306 303 305 297 282 279 290 260 197
134 121 116 112 99 93 81 76 70 65 70 66 26 29 17 8 357 348 344 348 335 335 321 304 299 294 304 308 315 289 291 289
138 132 128 121 118 102 98 91 82 63 50 55 50 27 342 310 314 310 320 336 325 316 302 295 292 310 308 309 304 302 316 311
144 145 137 139 133 116 93 82 66 64 69 67 57 15 274 292 310 334 325 318 325 324 319 307 277 253 269 286 299 299 289 272
151 141 142 128 96 98 99 95 74 52 49 43 42 1 323 337 325 326 321 314 324 345 352 354 343 335 323 309 303 289 287 286
140 141 123 121 119 111 101 89 69 44 39 23 4 321 307 295 303 303 324 328 352 5 41 21 355 339 330 309 313 309 318 286
132 131 121 122 122 122 114 101 82 43 32 349 325 315 244 269 252 284 291 233 199 199 26 2 14 354 356 358 0 303 42 337
128 126 134 137 135 128 114 91 56 28 351 333 329 337 346 328 329 335 301 235 247 252 241 253 259 269 288 2 316 316 358 324
139 140 139 136 128 124 96 88 99 41 299 283 291 302 302 294 291 289 263 256 251 252 251 259 268 262 242 219 246 253 305 48
141 138 134 126 119 111 122 127 151 253 262 299 309 306 306 309 291 286 270 263 252 248 247 251 255 256 242 233 249 257 266 266
144 140 126 119 121 125 138 121 1 348 331 325 307 304 309 311 300 288 280 267 268 257 257 257 254 248 242 234 243 239 238 249
120 109 116 125 105 61 53 54 18 346 345 334 320 316 310 298 298 296 292 283 276 278 265 265 270 260 244 231 227 233 240 248
123 118 99 94 108 95 63 29 16 359 340 327 320 314 319 315 319 330 331 323 315 317 311 299 293 280 270 269 236 248 247 247
129 116 121 111 91 78 69 40 24 2 9 6 349 343 345 358 352 338 330 330 333 317 325 334 328 308 301 293 275 258 304 291
124 122 109 99 100 103 53 41 24 23 20 338 346 0 356 343 331 325 318 316 323 320 316 308 322 333 342 315 321 328 289 261
122 119 115 98 74 73 61 40 23 13 7 21 360 353 343 335 322 317 313 317 316 311 302 297 296 296 258 263 288 255 267 269
118 111 98 79 74 66 63 41 36 39 22 6 353 342 327 326 325 325 315 314 309 301 308 298 296 296 277 272 288 297 288 275